timestamp,surface_pressure_avg,surface_temp_avg,battery_voltage,lat,long
2018-11-05 00:00:00+00:00,276.4214,9.5,13.05,47.84626,-54.09684
2018-11-05 00:10:00+00:00,269.7714,9.5,13.05,47.84626,-54.09684
2018-11-05 00:20:00+00:00,261.1214,9.5,13.13,47.84626,-54.09684
2018-11-05 00:30:00+00:00,252.6564,9.5,13.13,47.84626,-54.09684
2018-11-05 00:40:00+00:00,245.4831,9.5,13.13,47.84626,-54.09684
2018-11-05 00:50:00+00:00,237.8864,9.49,13.13,47.84626,-54.09684
2018-11-05 01:00:00+00:00,232.8698,9.47,13.05,47.84626,-54.09684
2018-11-05 01:10:00+00:00,227.5631,9.48,12.97,47.84626,-54.09684
2018-11-05 01:20:00+00:00,221.0197,9.43,13.05,47.84626,-54.09684
2018-11-05 01:30:00+00:00,213.0481,9.4,13.05,47.84626,-54.09684
2018-11-05 01:40:00+00:00,206.6114,9.34,13.13,47.84626,-54.09684
2018-11-05 01:50:00+00:00,201.8315,9.3,13.13,47.84626,-54.09684
2018-11-05 02:00:00+00:00,193.7664,9.33,13.05,47.84626,-54.09684
2018-11-05 02:10:00+00:00,188.5331,9.37,12.97,47.84626,-54.09684
2018-11-05 02:20:00+00:00,190.2981,9.4,13.05,47.84626,-54.09684
2018-11-05 02:30:00+00:00,187.8898,9.39,13.05,47.84626,-54.09684
2018-11-05 02:40:00+00:00,181.5515,9.3,13.13,47.84626,-54.09684
2018-11-05 02:50:00+00:00,184.9548,9.29,13.13,47.84626,-54.09684
2018-11-05 03:00:00+00:00,188.5315,9.3,13.05,47.84626,-54.09684
2018-11-05 03:10:00+00:00,185.5231,9.3,12.97,47.84626,-54.09684
2018-11-05 03:20:00+00:00,186.8181,9.3,13.05,47.84626,-54.09684
2018-11-05 03:30:00+00:00,193.8414,9.26,13.05,47.84626,-54.09684
2018-11-05 03:40:00+00:00,197.7348,9.2,13.05,47.84626,-54.09684
2018-11-05 03:50:00+00:00,197.0748,9.1,13.13,47.84626,-54.09684
2018-11-05 04:00:00+00:00,195.7231,9.1,13.05,47.84626,-54.09684
2018-11-05 04:10:00+00:00,199.2315,9.1,12.97,47.84626,-54.09684
2018-11-05 04:20:00+00:00,201.7781,9.14,13.05,47.84626,-54.09684
2018-11-05 04:30:00+00:00,204.4448,9.38,13.05,47.84626,-54.09684
2018-11-05 04:40:00+00:00,208.0081,9.43,13.05,47.84626,-54.09684
2018-11-05 04:50:00+00:00,210.0764,9.47,13.05,47.84626,-54.09684
2018-11-05 05:00:00+00:00,215.7898,9.49,13.05,47.84626,-54.09684
2018-11-05 05:10:00+00:00,223.8264,9.5,12.97,47.84626,-54.09684
2018-11-05 05:20:00+00:00,229.5064,9.49,13.05,47.84626,-54.09684
2018-11-05 05:30:00+00:00,235.4498,9.5,13.05,47.84626,-54.09684
2018-11-05 05:40:00+00:00,240.4231,9.49,13.05,47.84626,-54.09684
2018-11-05 05:50:00+00:00,244.1497,9.4,13.05,47.84626,-54.09684
2018-11-05 06:00:00+00:00,252.2364,9.38,13.05,47.84626,-54.09684
2018-11-05 06:10:00+00:00,260.9197,9.36,12.97,47.84626,-54.09684
2018-11-05 06:20:00+00:00,267.7163,9.3,13.05,47.84626,-54.09684
2018-11-05 06:30:00+00:00,273.1097,9.2,13.05,47.84626,-54.09684
2018-11-05 06:40:00+00:00,286.0597,8.86,13.05,47.84626,-54.09684
2018-11-05 06:50:00+00:00,294.6397,8.8,13.05,47.84626,-54.09684
2018-11-05 07:00:00+00:00,299.5513,9.09,12.97,47.84626,-54.09684
2018-11-05 07:10:00+00:00,309.838,9.1,12.97,47.84626,-54.09684
2018-11-05 07:20:00+00:00,323.193,9.16,13.05,47.84626,-54.09684
2018-11-05 07:30:00+00:00,327.6647,9.27,13.05,47.84626,-54.09684
2018-11-05 07:40:00+00:00,331.0613,9.23,13.05,47.84626,-54.09684
2018-11-05 07:50:00+00:00,339.553,9.3,13.05,47.84626,-54.09684
2018-11-05 08:00:00+00:00,350.3362,9.38,12.97,47.84626,-54.09684
2018-11-05 08:10:00+00:00,355.0496,9.4,12.97,47.84626,-54.09684
2018-11-05 08:20:00+00:00,356.7879,9.43,13.05,47.84626,-54.09684
2018-11-05 08:30:00+00:00,363.278,9.46,13.05,47.84626,-54.09684
2018-11-05 08:40:00+00:00,370.8963,9.43,13.05,47.84626,-54.09684
2018-11-05 08:50:00+00:00,371.7996,9.43,13.05,47.84626,-54.09684
2018-11-05 09:00:00+00:00,371.718,9.48,12.97,47.84626,-54.09684
2018-11-05 09:10:00+00:00,376.6912,9.5,12.89,47.84626,-54.09684
2018-11-05 09:20:00+00:00,381.4479,9.49,12.97,47.84626,-54.09684
2018-11-05 09:30:00+00:00,380.4313,9.48,13.05,47.84626,-54.09684
2018-11-05 09:40:00+00:00,380.0563,9.48,13.05,47.84626,-54.09684
2018-11-05 09:50:00+00:00,382.1995,9.48,13.05,47.84626,-54.09684
2018-11-05 10:00:00+00:00,386.0746,9.4,12.97,47.84626,-54.09684
2018-11-05 10:10:00+00:00,381.9579,9.4,12.89,47.84626,-54.09684
2018-11-05 10:20:00+00:00,377.6678,9.4,12.97,47.84626,-54.09684
2018-11-05 10:30:00+00:00,379.0812,9.4,12.97,47.84626,-54.09684
2018-11-05 10:40:00+00:00,380.1479,9.42,13.05,47.84626,-54.09684
2018-11-05 10:50:00+00:00,373.2964,9.41,13.21,47.84626,-54.09684
2018-11-05 11:00:00+00:00,371.0596,9.44,13.76,47.84626,-54.09684
2018-11-05 11:10:00+00:00,369.8112,9.45,14.48,47.84626,-54.09684
2018-11-05 11:20:00+00:00,361.9597,9.48,16.23,47.84626,-54.09684
2018-11-05 11:30:00+00:00,354.6212,9.47,14.88,47.84626,-54.09684
2018-11-05 11:40:00+00:00,348.0546,9.46,15.27,47.84626,-54.09684
2018-11-05 11:50:00+00:00,338.8297,9.47,15.11,47.84626,-54.09684
2018-11-05 12:00:00+00:00,334.4997,9.46,16.31,47.84626,-54.09684
2018-11-05 12:10:00+00:00,330.528,9.46,16.23,47.84626,-54.09684
2018-11-05 12:20:00+00:00,322.1613,9.4,15.83,47.84626,-54.09684
2018-11-05 12:30:00+00:00,313.1447,9.3,16.07,47.84626,-54.09684
2018-11-05 12:40:00+00:00,304.193,9.3,15.75,47.84626,-54.09684
2018-11-05 12:50:00+00:00,296.828,9.3,15.27,47.84626,-54.09684
2018-11-05 13:00:00+00:00,289.5314,9.3,14.88,47.84626,-54.09684
2018-11-05 13:10:00+00:00,281.4314,9.31,14.88,47.84626,-54.09684
2018-11-05 13:20:00+00:00,272.7281,9.27,14.88,47.84626,-54.09684
2018-11-05 13:30:00+00:00,265.6681,9.27,14.96,47.84626,-54.09684
2018-11-05 13:40:00+00:00,258.3148,9.35,14.96,47.84626,-54.09684
2018-11-05 13:50:00+00:00,249.2247,9.37,15.11,47.84626,-54.09684
2018-11-05 14:00:00+00:00,240.1314,9.22,14.8,47.84626,-54.09684
2018-11-05 14:10:00+00:00,234.7598,9.29,14.56,47.84626,-54.09684
2018-11-05 14:20:00+00:00,233.7198,9.3,14.96,47.84626,-54.09684
2018-11-05 14:30:00+00:00,230.5048,9.33,14.8,47.84626,-54.09684
2018-11-05 14:40:00+00:00,221.9214,9.3,14.96,47.84626,-54.09684
2018-11-05 14:50:00+00:00,215.6731,9.3,14.96,47.84626,-54.09684
2018-11-05 15:00:00+00:00,215.8798,9.3,14.8,47.84626,-54.09684
2018-11-05 15:10:00+00:00,210.0248,9.34,14.72,47.84626,-54.09684
2018-11-05 15:20:00+00:00,199.8648,9.3,14.56,47.84626,-54.09684
2018-11-05 15:30:00+00:00,198.0348,9.2,14.88,47.84626,-54.09684
2018-11-05 15:40:00+00:00,198.3164,9.19,14.72,47.84626,-54.09684
2018-11-05 15:50:00+00:00,195.9564,9.18,14.88,47.84626,-54.09684
2018-11-05 16:00:00+00:00,195.3664,9.19,14.8,47.84626,-54.09684
2018-11-05 16:10:00+00:00,198.8265,9.2,14.72,47.84626,-54.09684
2018-11-05 16:20:00+00:00,201.2881,9.2,14.8,47.84626,-54.09684
2018-11-05 16:30:00+00:00,201.4681,9.2,14.72,47.84626,-54.09684
2018-11-05 16:40:00+00:00,206.1615,9.2,14.72,47.84626,-54.09684
2018-11-05 16:50:00+00:00,209.5214,9.2,14.64,47.84626,-54.09684
2018-11-05 17:00:00+00:00,207.8315,9.2,14.64,47.84626,-54.09684
2018-11-05 17:10:00+00:00,208.7348,9.2,14.64,47.84626,-54.09684
2018-11-05 17:20:00+00:00,212.8214,9.2,14.72,47.84626,-54.09684
2018-11-05 17:30:00+00:00,215.5648,9.2,14.64,47.84626,-54.09684
2018-11-05 17:40:00+00:00,218.9797,9.2,14.64,47.84626,-54.09684
2018-11-05 17:50:00+00:00,226.2731,9.2,14.56,47.84626,-54.09684
2018-11-05 18:00:00+00:00,231.7364,9.2,14.56,47.84626,-54.09684
2018-11-05 18:10:00+00:00,230.8431,9.2,14.48,47.84626,-54.09684
2018-11-05 18:20:00+00:00,229.2798,9.26,14.56,47.84626,-54.09684
2018-11-05 18:30:00+00:00,237.1781,9.2,14.48,47.84626,-54.09684
2018-11-05 18:40:00+00:00,246.3531,9.2,14.48,47.84626,-54.09684
2018-11-05 18:50:00+00:00,247.3247,9.22,14.48,47.84626,-54.09684
2018-11-05 19:00:00+00:00,248.5797,9.24,14.32,47.84626,-54.09684
2018-11-05 19:10:00+00:00,257.1797,9.3,14.24,47.84626,-54.09684
2018-11-05 19:20:00+00:00,265.7131,9.38,14.24,47.84626,-54.09684
2018-11-05 19:30:00+00:00,268.5364,9.4,14.08,47.84626,-54.09684
2018-11-05 19:40:00+00:00,275.5413,9.4,14.0,47.84626,-54.09684
2018-11-05 19:50:00+00:00,287.1747,9.4,13.92,47.84626,-54.09684
2018-11-05 20:00:00+00:00,298.4446,9.4,13.76,47.84626,-54.09684
2018-11-05 20:10:00+00:00,302.9247,9.4,13.6,47.84626,-54.09684
2018-11-05 20:20:00+00:00,311.723,9.4,13.6,47.84626,-54.09684
2018-11-05 20:30:00+00:00,322.3497,9.4,13.53,47.84626,-54.09684
2018-11-05 20:40:00+00:00,327.923,9.4,13.44,47.84626,-54.09684
2018-11-05 20:50:00+00:00,328.9613,9.45,13.44,47.84626,-54.09684
2018-11-05 21:00:00+00:00,333.1063,9.49,13.37,47.84626,-54.09684
2018-11-05 21:10:00+00:00,340.038,9.49,13.21,47.84626,-54.09684
2018-11-05 21:20:00+00:00,342.4062,9.5,13.21,47.84626,-54.09684
2018-11-05 21:30:00+00:00,338.0246,9.5,13.21,47.84626,-54.09684
2018-11-05 21:40:00+00:00,341.1712,9.4,13.21,47.84626,-54.09684
2018-11-05 21:50:00+00:00,349.0446,9.4,13.21,47.84626,-54.09684
2018-11-05 22:00:00+00:00,354.5079,9.5,13.13,47.84626,-54.09684
2018-11-05 22:10:00+00:00,355.813,9.5,13.05,47.84626,-54.09684
2018-11-05 22:20:00+00:00,350.7445,9.5,13.13,47.84626,-54.09684
2018-11-05 22:30:00+00:00,349.6629,9.4,13.13,47.84626,-54.09684
2018-11-05 22:40:00+00:00,352.548,9.46,13.13,47.84626,-54.09684
2018-11-05 22:50:00+00:00,352.0663,9.47,13.13,47.84626,-54.09684
2018-11-05 23:00:00+00:00,344.1846,9.4,13.05,47.84626,-54.09684
2018-11-05 23:10:00+00:00,340.983,9.4,12.97,47.84626,-54.09684
2018-11-05 23:20:00+00:00,345.1846,9.41,13.05,47.84626,-54.09684
2018-11-05 23:30:00+00:00,339.473,9.47,13.05,47.84626,-54.09684
2018-11-05 23:40:00+00:00,330.403,9.5,13.13,47.84626,-54.09684
2018-11-05 23:50:00+00:00,326.1213,9.5,13.13,47.84626,-54.09684
